sat.trackr.live / text

‹ back to catalog

STARLINK-36866

NORAD 67895 · 2026-035S

PAYLOAD ACTIVE UNKNOWN

§ Identity

Operator
Country
US
Launch date
2026-02-21
Launch site
AFWTR
Launch vehicle
Mass (kg)
RCS (m²)

Purposes: comms

External: N2YO · Heavens-Above · Gunter

§ Orbital elements

Epoch: 2026-09-17T18:36:38.674368Z

Period
93.91 min
Inclination
97.2842°
Eccentricity
0.0001890
Mean motion
15.33437111 rev/d
Perigee alt
464.3 km
Apogee alt
466.9 km
Semi-major
6,843.7 km
B*
6.7828e-4
RAAN
192.6364°
Arg perigee
102.4287°
Mean anomaly
257.7168°
Rev number
3,342

§ Raw data

STARLINK-368661 67895U 26035S   26260.77544762  .00021881  00000+0  67828-3 0  99922 67895  97.2842 192.6364 0001890 102.4287 257.7168 15.33437111 33429

JSON: /api/v1/satellites/67895 · /tle

For live sub-satellite position, see the globe view (requires WebGL).

§ Visibility from observer

Set your observer location to see the next 7 days of passes ≥ 10°. The values pass through the URL so the page stays shareable.

No JS? Fill the form by hand. The geolocation button needs JavaScript.